STARLINK-33838, 63500

Orbit data source: Space-Track

STARLINK-33838, 63500 is a payload satellite owned by SpaceX/Seattle (US) in LEO that was launched on Mon, 07 Apr 2025 UTC via an FALCON 9 launch vehicle from the Air Force Western Test Range (AFWTR). Payload-class satellites include a variety of spacecraft equipped with specific instruments for various scientific and technological missions. These include communications satellites like Starlink; space stations such as the ISS; scientific satellites like the Hubble; Earth observation satellites from companies like Planet Labs, Umbra, and HawkEye 360; GPS; miniature CubeSats for education and research; and military/defense satellites.

Loading next visibility...
Identifier
63500, 2025-071H
Orbit
LEO
Last TLE update
8 hours ago
Origin
Manufacturer
SpaceX/Seattle
Mission
Operational Commercial Communications
Bus & Motor
STARLINK V2MO, Unknown motor
Mass
575 kg wet, ~530 kg dry
Launch date (UTC)
2025-04-07 (3 months ago)
Launch vehicle
FALCON 9
Launch site
Air Force Western Test Range (AFWTR)
Object type
Payload
Rocket body
Debris
Shape & HBR
Box + 1 Pan, 29 m
Radar Cross Section
41.120 m², Large (>1 m²)

Expand to show TLE details & history

TLE from 8 hours ago
0 STARLINK-33838
1 63500U 25071H   25182.58335648  .00067738  00000-0  16892-2 0  9998
2 63500  53.1576 226.9599 0001257  65.5705 342.3844 15.39605683  5906
Epoch: 2025-07-01T14:00Z
TLE epoch observation values (Epoch: 2025-07-01T14:00:01.999Z)
Latitude
36.57945°
Longitude
130.64378°
Altitude
449.342 km
Speed
7.648 km/s
True Right ascension
17h 22m 06s
True Declination
36° 24' 27"
Sunlit
Object was in full shadow at epoch
Visualization orbit readout
Latitude
16.72065°
Longitude
-97.48354°
Altitude
447.434 km
Speed
7.646 km/s
Apparent Right ascension
00h 23m 17s
Apparent Declination
-12° 13' 41"
Sunlit
Object is in daylight
Visualization observer readout
Local Sidereal Time
09:56:37
Azimuth
300.265° NW
Elevation
-47.49°
Doppler factor
1
Orbital elements
Apogee altitude
448.39 km
Perigee altitude
446.674 km
Semi-major axis
6,825.669 km
Eccentricity
0.00013
Inclination
53.1576°
RAAN
226.9599°
Arg. of periapsis
65.5705°
True anomaly
Unknown
Mean anomaly
342.3844°
Eccentric anomaly
Unknown
Mean motion
3.8488 °/min
Orbital period
93.54 mins
BSTAR
0.0016892
Loading maneuver chart data...
Loading SW <> Apogee altitude chart data...
Loading historical data...
Loading historical data...
Loading historical data...
Loading historical data...
Loading historical data...
Loading historical data...
Loading historical data...

STARLINK-33838 Visibility forecast

Observer location: undefined°, undefined°

Span
Click to sort rows by Start time (UTC) header in descending order
Start Az.
Max El. time (UTC)
Max El. Az.
Max El.
End time (UTC)
End Az.
6 mins2025-07-02 05:32:14.062Z219.713° SW2025-07-02 05:35:14.062Z182.111° SSW40.425°2025-07-02 05:38:14.062Z57.262° ENE
5 mins2025-07-02 12:06:14.062Z327.595° NNW2025-07-02 12:08:14.062Z41.914° NE38.3°2025-07-02 12:11:14.062Z112.948° SE
|